STARLINK-4314, 53056

Orbit data source: Space-Track

STARLINK-4314, 53056 is a payload satellite owned by SpaceX/Seattle (US) in SSO that was launched on Mon, 11 Jul 2022 UTC via an FALCON 9 launch vehicle from the Air Force Western Test Range (AFWTR). Payload-class satellites include a variety of spacecraft equipped with specific instruments for various scientific and technological missions. These include communications satellites like Starlink; space stations such as the ISS; scientific satellites like the Hubble; Earth observation satellites from companies like Planet Labs, Umbra, and HawkEye 360; GPS; miniature CubeSats for education and research; and military/defense satellites.

Loading next visibility...
Identifier
53056, 2022-077P
Orbit
SSO
Country
Flag of USUS
Related business
Manufacturer
SpaceX/Seattle
Mission
Operational Commercial Communications
Bus & Motor
STARLINK, Unknown motor
Mass
297 kg wet, ~275 kg dry
Launch date (UTC)
2022-07-11 (3 years ago)
Launch vehicle
FALCON 9
Launch site
Air Force Western Test Range (AFWTR)
Object type
Payload
Rocket body
Debris
Shape & HBR
Box + 1 Pan, 10.1 m
Radar Cross Section
13.562 m², Large (>1 m²)

Expand to show TLE details & history
Last TLE update: 18 hours ago

TLE from 18 hours ago
0 STARLINK-4314
1 53056U 22077P   25348.91983186  .00000383  00000-0  30769-4 0  9997
2 53056  97.6019 167.6603 0001693  87.2794 272.8626 15.05645993188229
Epoch: 2025-12-14T22:04Z
TLE epoch observation values (Epoch: 2025-12-14T22:04:33.472Z)
Latitude
-0.00009°
Longitude
112.69501°
Altitude
552.53 km
Speed
7.586 km/s
True Right ascension
11h 10m 38s
True Declination
0° 00' 00"
Sunlit
Object was in daylight at epoch
Visualization orbit readout
Latitude
Unknown
Longitude
Unknown
Altitude
Unknown
Speed
Unknown
Apparent Right ascension
Unknown
Apparent Declination
Unknown
Sunlit
N/A
Visualization observer readout
Local Sidereal Time
15:08:56
Azimuth
Unknown
Elevation
Unknown
Doppler factor
Unknown
Orbital elements
Apogee altitude
547.689 km
Perigee altitude
545.345 km
Semi-major axis
6,924.654 km
Eccentricity
0.00017
Inclination
97.6019°
RAAN
167.6603°
Arg. of periapsis
87.2794°
True anomaly
272.84322°
Mean anomaly
272.8626°
Eccentric anomaly
272.85291°
Mean motion
3.76657 °/min
Orbital period
95.58 mins
BSTAR
0.000030769
Loading maneuver chart data...
Computing Atmospheric mass density...
Loading historical data...
Loading historical data...
Loading historical data...
Loading historical data...
Loading historical data...
Loading historical data...
Loading historical data...

Documentation

Showing up to 5 results
|